Location: Pangasso
(14.9074°N, 3.0026°W)
Time: 06:15:04
(UTC+00:00)

Daily predictions for brighter satellites

Satellite Brightness Start Highest point End
(mag) Time Altitude Azimuth Time Altitude Azimuth Time Altitude Azimuth
CORIOLIS 4.1 17:58:27 10° SSE 18:03:45 71° ENE 18:09:03 10° N
FengYun 1-2 T 4.4 18:00:02 10° SSE 18:05:30 53° ENE 18:10:58 10° N
COSMOS 2487 2.7 18:07:18 10° NNW 18:10:41 72° WSW 18:14:04 10° S
Cosmos 1340 4.1 18:10:25 10° NE 18:13:00 18° E 18:15:35 10° SE
GPS 2-12 Rocket1 2.9 18:09:02 10° WNW 18:13:28 75° NNE 18:17:52 10° E
Okean O Rocket 2.2 18:09:13 10° S 18:13:33 64° WSW 18:17:53 10° NNW
Cosmos 2360 4.3 18:09:33 10° S 18:15:09 58° ESE 18:20:45 10° NNE
YAOGAN 1 4.3 18:13:41 10° E 18:15:21 12° ENE 18:17:01 10° NE
Cosmos 2297 Rocket 3.7 18:13:47 10° NE 18:16:30 14° ENE 18:19:12 10° E
Aureole 3 4.1 18:12:53 10° SSW 18:16:48 51° W 18:20:01 10° N
Fermi 3.8 18:12:47 10° WSW 18:16:51 67° SSE 18:20:33 12° ENE
COSMO-SKYMED 1 3.1 18:12:39 10° N 18:16:56 63° WNW 18:21:13 10° SSW
MOS 1 Rocket 4.2 18:13:40 10° NE 18:18:06 32° E 18:22:44 10° SSE
Meteor 1-11 4.4 18:12:22 10° N 18:18:09 84° W 18:23:57 10° S
SL-24 R/B 4.4 18:13:12 10° NNE 18:18:37 71° E 18:23:19 10° S
GPS 2-14 Rocket1 3.0 18:15:30 10° WNW 18:19:36 55° NNE 18:23:11 13° E
Cosmos 1812 Rocket 4.4 18:17:38 10° SSE 18:21:25 28° E 18:25:11 10° NNE
Cosmos 1455 2.6 18:18:56 10° SSE 18:22:23 37° E 18:25:52 10° NNE
SMAP 4.3 18:18:52 10° S 18:23:19 47° W 18:27:47 10° NNW
SEDSat Delta rocket 4.2 18:16:46 10° SW 18:23:29 63° SSE 18:29:05 14° ENE
USA 281 3.2 18:18:18 10° SSE 18:24:52 85° ENE 18:31:26 10° NNW
CZ-2C R/B 4.4 18:20:34 10° ESE 18:24:54 22° ENE 18:29:13 10° NNE
Milstar 3 4.0 18:20:15 10° WNW 18:26:21 28° N 18:31:53 11° NE
Feng Yun 1-1 Rocket 4.4 18:20:45 10° SSE 18:26:26 61° ENE 18:32:14 10° N
Cosmos 1825 Rocket 4.3 18:22:39 10° NNW 18:26:58 58° W 18:31:15 10° S
Cosmos 44 Rocket 3.3 18:23:24 10° SSW 18:28:02 79° WNW 18:32:46 10° NNE
Cosmos 2278 3.9 18:22:55 10° S 18:28:26 52° ESE 18:33:55 10° NNE
Cosmos 1939 Rocket 2.9 18:28:04 10° SSE 18:32:01 55° ENE 18:35:54 10° N
Meteor 2-10 Rocket 3.6 18:29:37 10° S 18:35:11 88° E 18:40:30 10° N
Cosmos 1553 Rocket 4.3 18:28:53 10° S 18:35:16 74° W 18:41:36 10° N
Timation 2 Rocket 4.5 18:28:55 10° N 18:35:18 43° ENE 18:41:45 10° SE
Helios 1A Rocket 3.3 18:35:39 10° SE 18:39:30 38° ENE 18:43:19 10° N
Centaur AC-119 4.2 18:38:34 10° WNW 18:42:29 17° NNW 18:44:23 12° NNE
Meteor 2-15 Rocket 4.4 18:37:08 10° S 18:43:16 77° E 18:49:23 10° N
Cosmos 2219 3.8 18:41:56 10° N 18:47:01 32° ENE 18:52:03 10° SE
Okean-O 2.9 18:42:58 10° SSE 18:47:10 44° ENE 18:51:22 10° N
DMSP B5D1-3 4.5 18:43:21 10° NNE 18:48:30 87° E 18:53:39 10° SSW
CZ-4 R/B 1.3 18:52:17 10° SSE 18:56:10 53° ENE 18:59:57 10° N
H-2A R/B 3.1 18:53:05 10° SE 18:58:51 27° NE 19:02:16 10° NNE
CZ-2C R/B 3.6 18:56:22 10° SSE 18:57:26 11° SSE 18:57:26 11° SSE
SL-16 R/B 3.6 19:02:08 10° SSE 19:04:35 20° SE 19:04:35 20° SE
CSL-04 Rocket 4.3 19:01:50 10° SE 19:07:42 35° NE 19:11:56 10° N
Orbus 7S 3.9 19:06:08 10° W 19:08:36 36° NNW 19:08:54 35° N
CZ-2C R/B 2.8 19:11:03 44° E 19:11:32 45° E 19:16:33 10° S
ASC 2 Rocket 4.1 19:08:49 10° NW 19:13:02 38° NNE 19:13:40 36° NNE
CZ-2D R/B 4.2 19:10:43 10° S 19:14:23 46° W 19:18:03 10° NNW
Cosmos 1892 2.9 19:11:06 10° N 19:14:56 69° W 19:18:46 10° S
Cosmos 2058 4.5 19:10:52 10° N 19:17:22 23° SSE 19:19:02 10° S
Atlas Centaur 2 4.3 19:09:35 10° WNW 19:16:32 27° N 19:20:08 21° NNE
Cosmos 1745 Rocket 3.9 19:13:15 10° N 19:19:36 82° E 19:25:57 10° S
Cosmos 2227 Rocket 2.4 19:15:20 10° N 19:19:55 46° NE 19:19:55 46° NE
ATLAS 2AS CENTAUR RB 3.3 19:22:32 10° WSW 19:22:51 13° WSW 19:22:51 13° WSW
Hubble Space Telescope 1.5 19:22:06 10° WNW 19:26:02 45° SSW 19:26:11 45° SSW
SWIFT 3.1 19:28:35 10° W 19:32:14 48° SW 19:32:14 48° SW
EO 1 Delta rocket 4.5 19:39:17 35° NNW 19:40:58 54° W 19:45:48 10° SSW
Cosmos 1980 Rocket 4.1 19:38:08 10° SW 19:42:47 26° WNW 19:47:27 10° NNW
CSL-04 Debris 4.3 19:42:02 10° S 19:47:24 72° WSW 19:52:49 10° NNW
YAOGAN 1 4.4 19:47:18 10° SSW 19:51:05 30° W 19:54:53 10° NW
Delta 7925 Rocket 4.3 19:47:14 10° W 19:52:03 45° NW 19:52:03 45° NW
Cosmos 2297 Rocket 3.1 19:55:10 10° NNW 20:00:30 45° WSW 20:02:29 33° SSW
Centaur AC-72 3.9 18:51:43 10° W 20:00:37 75° N 20:02:54 60° ENE
Cosmos 2322 Rocket 4.3 20:08:49 10° SSW 20:10:07 18° SSW 20:10:07 18° SSW
